KINEIS-2A

Last updated on Fri Sep 11 2026 00:02:53 GMT+0000 (Coordinated Universal Time)

1 62932U 25028E 26253.38679737 .00000845 00000+0 13778-3 0 9992 2 62932 98.1225 308.8986 0003277 246.8870 113.1993 14.73559540 85156
UTC large
Height (km)
Speed (km/s)
/
Latitude / Longitude
Inclination (degrees)
Orbital Period (minutes)
Azimuth
Elevation
Range (km)
Doppler Factor

Next 0 passes for location: London (51.5072 / 0.1276)

No passes found over London.
KINEIS-2A